GW6304 Weather Reports


Display with metric or nautical units.
time (UTC)temp
F
wind
direction
speed
MPH
gust
MPH
rain 1hr
in
rain 24hr
in
rain mn
in
humidity
%
barometer
mb
20260504044006 59 193 1.0 6.0 0.00 0.00 0.00 53 1015.5
20260504043509 59 188 1.0 5.0 0.00 0.00 0.00 53 1015.4
20260504043029 59 172 2.0 5.0 0.00 0.00 0.00 53 1015.4
20260504042506 59 199 3.0 4.0 0.00 0.00 0.00 53 1015.4
20260504042012 59 174 2.0 4.0 0.00 0.00 0.00 54 1015.5
20260504041505 59 180 3.0 4.0 0.00 0.00 0.00 55 1015.5
20260504041002 59 180 2.0 3.0 0.00 0.00 0.00 55 1015.6
20260504040504 58 167 2.0 3.0 0.00 0.00 0.00 56 1015.8
20260504040016 58 175 2.0 3.0 0.00 0.00 0.00 56 1015.8
20260504035507 58 181 1.0 2.0 0.00 0.00 0.00 56 1015.7
20260504035007 58 180 1.0 2.0 0.00 0.00 0.00 56 1015.8
20260504034511 58 176 1.0 1.0 0.00 0.00 0.00 56 1016.0
20260504034006 58 176 1.0 2.0 0.00 0.00 0.00 57 1016.0
20260504033508 58 186 1.0 2.0 0.00 0.00 0.00 58 1016.0
20260504033018 58 186 0.0 2.0 0.00 0.00 0.00 56 1016.1
20260504032506 58 186 0.0 1.0 0.00 0.00 0.00 55 1016.0
20260504032011 58 186 1.0 1.0 0.00 0.00 0.00 55 1016.1
20260504031524 58 186 0.0 2.0 0.00 0.00 0.00 55 1016.3
20260504031010 58 186 0.0 2.0 0.00 0.00 0.00 55 1016.3
20260504030503 58 203 0.0 1.0 0.00 0.00 0.00 57 1016.4
20260504030008 57 203 1.0 1.0 0.00 0.00 0.00 59 1016.4
20260504025503 56 203 0.0 2.0 0.00 0.00 0.00 64 1016.4
20260504025004 56 203 0.0 2.0 0.00 0.00 0.00 62 1016.4
20260504024510 56 203 0.0 2.0 0.00 0.00 0.00 63 1016.4
20260504024004 57 203 0.0 2.0 0.00 0.00 0.00 63 1016.3
20260504023504 57 203 0.0 2.0 0.00 0.00 0.00 61 1016.4
20260504023015 57 203 0.0 2.0 0.00 0.00 0.00 60 1016.4
20260504022506 57 205 0.0 2.0 0.00 0.00 0.00 59 1016.4
20260504022008 57 205 0.0 1.0 0.00 0.00 0.00 57 1016.4
20260504021520 57 205 0.0 0.0 0.00 0.00 0.00 56 1016.3
20260504021006 57 205 0.0 2.0 0.00 0.00 0.00 59 1016.3
20260504020508 57 205 0.0 2.0 0.00 0.00 0.00 57 1016.2
20260504020025 58 205 0.0 0.0 0.00 0.00 0.00 56 1016.0
20260504015502 59 205 0.0 1.0 0.00 0.00 0.00 55 1015.9
20260504015002 60 205 0.0 2.0 0.00 0.00 0.00 51 1015.8
20260504014509 62 205 0.0 2.0 0.00 0.00 0.00 48 1015.8
20260504014005 62 217 0.0 2.0 0.00 0.00 0.00 44 1015.8
20260504013506 63 216 1.0 2.0 0.00 0.00 0.00 44 1015.6
20260504013016 63 177 1.0 6.0 0.00 0.00 0.00 43 1015.5
20260504012505 63 203 1.0 6.0 0.00 0.00 0.00 41 1015.5
20260504012007 63 219 1.0 3.0 0.00 0.00 0.00 41 1015.5
20260504011518 63 208 1.0 5.0 0.00 0.00 0.00 41 1015.5
20260504011010 64 205 2.0 6.0 0.00 0.00 0.00 40 1015.5
20260504010507 64 210 2.0 6.0 0.00 0.00 0.00 40 1015.7
20260504010019 64 260 2.0 6.0 0.00 0.00 0.00 40 1015.6
20260504005509 64 226 2.0 6.0 0.00 0.00 0.00 40 1015.6
20260504005009 65 213 2.0 7.0 0.00 0.00 0.00 39 1015.6
20260504004524 65 213 3.0 7.0 0.00 0.00 0.00 39 1015.6
20260504004003 65 255 3.0 7.0 0.00 0.00 0.00 39 1015.7
20260504003506 65 243 3.0 8.0 0.00 0.00 0.00 38 1015.6
20260504003007 66 232 2.0 8.0 0.00 0.00 0.00 38 1015.6
20260504002506 66 272 2.0 6.0 0.00 0.00 0.00 38 1015.5
20260504002004 66 178 2.0 7.0 0.00 0.00 0.00 37 1015.5
20260504001513 66 210 2.0 7.0 0.00 0.00 0.00 38 1015.5
20260504001007 67 245 2.0 7.0 0.00 0.00 0.00 38 1015.6
20260504000506 67 216 3.0 7.0 0.00 0.00 0.00 37 1015.7
20260504000020 67 255 4.0 8.0 0.00 0.00 0.00 37 1015.7
20260503235508 67 211 2.0 8.0 0.00 0.00 0.00 37 1015.7
20260503235007 67 219 4.0 9.0 0.00 0.00 0.00 36 1015.8
20260503234524 68 185 4.0 14.0 0.00 0.00 0.00 36 1015.8
20260503234008 68 210 4.0 14.0 0.00 0.00 0.00 36 1016.0
20260503233510 68 203 3.0 10.0 0.00 0.00 0.00 36 1016.0
20260503233009 68 199 2.0 6.0 0.00 0.00 0.00 35 1016.2
20260503232504 68 247 3.0 7.0 0.00 0.00 0.00 35 1016.1
20260503232004 68 235 3.0 7.0 0.00 0.00 0.00 34 1016.3
20260503231516 68 187 2.0 7.0 0.00 0.00 0.00 35 1016.2
20260503231006 68 191 2.0 13.0 0.00 0.00 0.00 34 1016.3
20260503230508 68 195 5.0 13.0 0.00 0.00 0.00 33 1016.4
20260503230020 68 245 4.0 11.0 0.00 0.00 0.00 33 1016.5
20260503225506 68 175 4.0 10.0 0.00 0.00 0.00 34 1016.4
20260503225007 68 216 4.0 10.0 0.00 0.00 0.00 34 1016.5
20260503224520 69 239 4.0 10.0 0.00 0.00 0.00 34 1016.5
20260503224010 69 251 2.0 8.0 0.00 0.00 0.00 33 1016.6
20260503223508 69 243 2.0 9.0 0.00 0.00 0.00 34 1016.6
20260503223024 69 213 4.0 10.0 0.00 0.00 0.00 33 1016.6
20260503222511 69 210 4.0 10.0 0.00 0.00 0.00 33 1016.6
20260503222003 69 223 5.0 10.0 0.00 0.00 0.00 33 1016.6
20260503221512 69 107 4.0 10.0 0.00 0.00 0.00 35 1016.7
20260503221008 68 266 4.0 10.0 0.00 0.00 0.00 31 1016.8
20260503220511 69 240 4.0 11.0 0.00 0.00 0.00 32 1016.9
20260503220015 69 222 4.0 11.0 0.00 0.00 0.00 34 1017.1
20260503215508 69 221 3.0 9.0 0.00 0.00 0.00 35 1017.2
20260503215007 69 241 4.0 9.0 0.00 0.00 0.00 34 1017.2
20260503214537 69 272 3.0 9.0 0.00 0.00 0.00 34 1017.3
20260503214009 68 230 3.0 11.0 0.00 0.00 0.00 34 1017.4
20260503213507 68 208 1.0 11.0 0.00 0.00 0.00 32 1017.4
20260503213025 69 211 5.0 11.0 0.00 0.00 0.00 35 1017.5
20260503212510 68 206 3.0 7.0 0.00 0.00 0.00 35 1017.5
20260503212010 68 224 1.0 4.0 0.00 0.00 0.00 35 1017.5
20260503211528 68 218 1.0 10.0 0.00 0.00 0.00 35 1017.7
20260503211004 68 196 1.0 10.0 0.00 0.00 0.00 35 1017.8
20260503210506 69 187 2.0 9.0 0.00 0.00 0.00 36 1017.9
20260503210012 69 175 3.0 8.0 0.00 0.00 0.00 34 1018.0
20260503205505 68 264 2.0 12.0 0.00 0.00 0.00 35 1018.1
20260503205005 69 212 3.0 12.0 0.00 0.00 0.00 33 1018.1
20260503204516 68 195 2.0 10.0 0.00 0.00 0.00 37 1018.2
20260503204007 68 154 5.0 10.0 0.00 0.00 0.00 34 1018.4
20260503203507 68 223 4.0 8.0 0.00 0.00 0.00 38 1018.4
20260503203024 67 203 2.0 11.0 0.00 0.00 0.00 33 1018.5
20260503202503 67 297 2.0 11.0 0.00 0.00 0.00 35 1018.6
20260503202004 68 233 6.0 11.0 0.00 0.00 0.00 33 1018.8
20260503201508 68 260 2.0 9.0 0.00 0.00 0.00 36 1018.8
20260503201007 68 165 2.0 8.0 0.00 0.00 0.00 34 1018.9
20260503200504 68 214 3.0 8.0 0.00 0.00 0.00 35 1019.1
20260503200013 67 165 3.0 9.0 0.00 0.00 0.00 34 1019.1
20260503195507 67 253 2.0 11.0 0.00 0.00 0.00 33 1019.3
20260503195005 67 230 4.0 11.0 0.00 0.00 0.00 31 1019.4
20260503194518 67 226 8.0 11.0 0.00 0.00 0.00 31 1019.4
20260503194007 67 232 3.0 7.0 0.00 0.00 0.00 36 1019.6
20260503193507 67 228 2.0 7.0 0.00 0.00 0.00 34 1019.7
20260503193029 67 217 2.0 11.0 0.00 0.00 0.00 33 1019.7
20260503192507 67 183 4.0 11.0 0.00 0.00 0.00 33 1019.7
20260503192011 66 203 0.0 10.0 0.00 0.00 0.00 35 1019.7
20260503191514 66 197 6.0 13.0 0.00 0.00 0.00 35 1019.8
20260503191004 66 205 4.0 13.0 0.00 0.00 0.00 35 1019.8
20260503190504 66 194 3.0 10.0 0.00 0.00 0.00 36 1020.0
20260503190011 66 249 4.0 10.0 0.00 0.00 0.00 36 1020.0
20260503185506 66 184 3.0 10.0 0.00 0.00 0.00 36 1020.0
20260503185006 65 206 4.0 12.0 0.00 0.00 0.00 36 1020.2
20260503184514 65 110 2.0 12.0 0.00 0.00 0.00 35 1020.2
20260503184007 65 83 1.0 9.0 0.00 0.00 0.00 38 1020.3
20260503183508 65 131 1.0 6.0 0.00 0.00 0.00 37 1020.5
20260503183020 64 253 3.0 6.0 0.00 0.00 0.00 37 1020.5
20260503182506 65 154 1.0 9.0 0.00 0.00 0.00 37 1020.6
20260503182012 65 180 1.0 9.0 0.00 0.00 0.00 36 1020.7
20260503181523 64 232 2.0 8.0 0.00 0.00 0.00 42 1020.7
20260503181007 64 283 2.0 11.0 0.00 0.00 0.00 38 1020.7
20260503180503 64 196 4.0 11.0 0.00 0.00 0.00 38 1020.7
20260503180009 63 215 1.0 11.0 0.00 0.00 0.00 36 1020.8
20260503175503 63 339 5.0 11.0 0.00 0.00 0.00 36 1020.8
20260503175006 63 262 0.0 11.0 0.00 0.00 0.00 40 1020.9
20260503174516 63 224 2.0 11.0 0.00 0.00 0.00 38 1021.0
20260503174004 63 278 2.0 6.0 0.00 0.00 0.00 36 1021.0
20260503173508 63 187 2.0 8.0 0.00 0.00 0.00 37 1021.0
20260503173025 63 207 3.0 9.0 0.00 0.00 0.00 36 1021.1
20260503172506 62 267 4.0 10.0 0.00 0.00 0.00 36 1021.2
20260503172009 62 166 4.0 10.0 0.00 0.00 0.00 36 1021.4
20260503171521 62 166 1.0 6.0 0.00 0.00 0.00 41 1021.4
20260503171012 61 216 2.0 9.0 0.00 0.00 0.00 41 1021.5
20260503170509 61 242 5.0 8.0 0.00 0.00 0.00 41 1021.7
20260503151005 57 174 1.0 4.0 0.00 0.00 0.00 40 1022.5
20260503150512 56 192 2.0 5.0 0.00 0.00 0.00 44 1022.4
20260503131005 47 118 0.0 2.0 0.00 0.00 0.00 87 1022.4
20260503130507 47 118 0.0 2.0 0.00 0.00 0.00 88 1022.4
20260503110507 38 35 0.0 0.0 0.00 0.00 0.00 91 1020.9
20260503090504 40 35 0.0 0.0 0.00 0.00 0.00 91 1020.5
20260503081534 41 35 0.0 0.0 0.00 0.00 0.00 90 1020.6
20260503081008 41 35 0.0 0.0 0.00 0.00 0.00 90 1020.6
20260503080504 41 35 0.0 0.0 0.00 0.00 0.00 90 1020.5
20260503072512 42 35 0.0 0.0 0.00 0.00 0.00 90 1020.6
20260503072010 43 35 0.0 0.0 0.00 0.00 0.00 90 1020.6
20260503071520 43 35 0.0 0.0 0.00 0.00 0.00 90 1020.5
20260503071008 43 35 0.0 0.0 0.00 0.00 0.00 90 1020.5
20260503070508 43 35 0.0 0.0 0.00 0.00 0.00 90 1020.4
20260503055007 43 35 0.0 0.0 0.00 0.00 0.00 89 1020.5
20260503054522 43 35 0.0 0.0 0.00 0.00 0.00 89 1020.5
20260503054004 43 35 0.0 0.0 0.00 0.00 0.00 89 1020.3
20260503053504 43 35 0.0 1.0 0.00 0.00 0.00 90 1020.3
20260503053017 43 35 0.0 1.0 0.00 0.00 0.00 90 1020.3
20260503052506 43 35 0.0 0.0 0.00 0.00 0.00 89 1020.3
20260503052006 43 34 0.0 0.0 0.00 0.00 0.00 89 1020.3
20260503051531 44 35 0.0 0.0 0.00 0.00 0.00 89 1020.4
20260503051007 44 35 0.0 0.0 0.00 0.00 0.00 89 1020.3
20260503050511 44 35 0.0 0.0 0.00 0.00 0.00 89 1020.2
20260503050024 44 35 0.0 0.0 0.00 0.00 0.00 89 1020.2
20260503045507 44 35 0.0 0.0 0.00 0.00 0.00 89 1020.2
20260503045007 44 35 0.0 0.0 0.00 0.00 0.00 89 1020.1
20260503044527 44 35 0.0 0.0 0.00 0.00 0.00 89 1020.1